Location: La Bilong�re
(48.1297°N, 1.4584°W)
Time: 23:40:27
(UTC+00:00)

PSLV R/B - Pass Details

Date: 03 March 2021
Orbit: 567 x 598 km, 98.2° (Epoch: 20 April)

Event Time Altitude Azimuth Distance (km) Brightness Sun altitude
Rises 18:32:14 0° 18° (NNE) 2,810 7.2 -7.3°
Reaches altitude 10° 18:34:28 10° 24° (NNE) 1,900 6.3 -7.7°
Maximum altitude 18:38:28 50° 100° (E) 741 4.1 -8.3°
Drops below altitude 10° 18:42:24 10° 176° (S) 1,869 6.5 -9.0°
Sets 18:44:35 0° 182° (S) 2,758 7.4 -9.3°
